Location: Unspecified
(43.4680°N, 87.1740°E)
Time: 19:42:15
(UTC+00:00)

Cosmos 158 Rocket - Pass Details

Date: 17 April 2021
Orbit: 699 x 792 km, 74.0° (Epoch: 11 May)

Event Time Altitude Azimuth Distance (km) Brightness Sun altitude
Rises 20:36:20 0° 338° (NNW) 3,129 7.5 -26.4°
Reaches altitude 10° 20:38:41 10° 338° (NNW) 2,194 6.7 -26.2°
Enters shadow 20:43:14 75° 314° (NW) 732 3.8 -25.6°
